Content
SEND FEEDBACK

Daily
Averages
Monthly
Summary
United States of America

CAMPBELL, MISSOURI


Home > North America > United States > Missouri
Elevation: 310 feet     Latitude: 36 29N     Longitude: 090 04W

WEATHER
 
SELECT A DAY
Number of Records: 211,898;   Date Range: 1/1/95 - 11/25/14
 
SHARE

PRINT THIS DATA

[ ← Previous Day ]
WEATHER ALMANAC - JULY 22, 2014
[ Next Day → ]
[ °C ]   °F
Weather ElementAverageHighLow
Temperature69.5 °F87.1 °F (3:53 pm)62.1 °F (5:53 am)
Dewpoint63.1 °F68 °F (6:53 pm)59 °F (5:53 am)
Humidity81.9 %94 % (1:49 am)48 % (3:53 pm)
Barometer30.06 in30.10 in (6:04 am)30.01 in (5:53 pm)
Wind Speed1.2 mph8.1 mph (5:53 pm)
Weather ElementAverage
Visibility4 mi
Wind DirectionNE (40.6 °)

Weather ElementTotal
Precipitation---
Cooling Degree Days9.6 (Base 65)
Growing Degree Days24.6 (Base 50)
Averaged from 48 records on July 22, 2014
WEATHER CONDITIONS BREAKOUT
WIND DIRECTION BREAKOUT
WEATHER BY HOUR - JULY 22, 2014
[ °C ]   °F
Local TimeTemperatureDewpointHumidityBarometerVisibilityWind DirectionWind SpeedGust SpeedPrecipitationEventsConditions
12:28 AM66.9 °F64.0 °F90 %30.06 in3.0 miCalmClear
12:49 AM66.2 °F62.6 °F88 %30.06 in2.5 miCalmClear
12:53 AM66.0 °F63.0 °F90 %30.04 in2.0 miCalmClear
1:02 AM64.9 °F63.0 °F93 %30.06 in1.0 miCalmClear
1:09 AM66.9 °F63.0 °F87 %30.06 in0.8 miCalmClear
1:14 AM66.9 °F63.0 °F87 %30.06 in2.0 miNNW (330°)3.5 mphClear
1:21 AM66.0 °F63.0 °F90 %30.06 in3.0 miCalmClear
1:33 AM66.0 °F62.1 °F87 %30.06 in2.0 miCalmClear
1:42 AM64.9 °F62.1 °F90 %30.05 in0.8 miCalmClear
1:49 AM64.4 °F62.6 °F94 %30.06 in0.2 miCalmFogFog
1:53 AM66.0 °F63.0 °F90 %30.05 in0.2 miCalmFogFog
1:58 AM64.9 °F62.1 °F90 %30.06 in0.8 miCalmClear
2:00 AM64.9 °F62.1 °F90 %30.06 in2.0 miCalmClear
2:20 AM64.0 °F61.0 °F90 %30.07 in3.0 miCalmClear
2:43 AM64.0 °F61.0 °F90 %30.06 in1.8 miCalmClear
2:53 AM64.9 °F62.1 °F90 %30.06 in3.0 miCalmClear
3:15 AM64.9 °F62.1 °F90 %30.07 in2.5 miCalmClear
3:20 AM63.0 °F61.0 °F93 %30.07 in0.8 miCalmClear
3:38 AM64.0 °F61.0 °F90 %30.07 in1.0 miCalmClear
3:53 AM63.0 °F61.0 °F93 %30.06 in1.5 miCalmClear
4:13 AM63.0 °F61.0 °F93 %30.07 in3.0 miCalmClear
4:50 AM62.6 °F60.8 °F94 %30.08 in2.5 miCalmClear
4:53 AM63.0 °F60.1 °F90 %30.07 in2.5 miCalmClear
5:00 AM63.0 °F60.1 °F90 %30.08 in3.0 miCalmClear
5:17 AM63.0 °F60.1 °F90 %30.09 in2.5 miCalmClear
5:29 AM63.0 °F60.1 °F90 %30.09 in4.0 miCalmClear
5:53 AM62.1 °F59.0 °F90 %30.09 in2.5 miCalmClear
6:04 AM63.0 °F60.1 °F90 %30.10 in1.5 miCalmClear
6:15 AM63.0 °F60.1 °F90 %30.10 in2.5 miCalmClear
6:53 AM64.9 °F61.0 °F87 %30.08 in3.0 miCalmClear
7:08 AM66.0 °F62.1 °F87 %30.09 in2.5 miCalmClear
7:34 AM69.1 °F64.0 °F84 %30.09 in3.0 miCalmHaze
7:53 AM71.1 °F64.9 °F81 %30.09 in4.0 miCalmHaze
9:53 AM80.1 °F64.9 °F60 %30.08 in8.0 miCalmClear
10:53 AM82.9 °F64.9 °F54 %30.08 in10.0 miSW (230°)4.6 mphClear
12:53 PM84.9 °F64.0 °F49 %30.08 in10.0 miSSW (200°)6.9 mphClear
1:53 PM86.0 °F64.9 °F49 %30.07 in10.0 miSW (220°)5.8 mphClear
2:53 PM86.0 °F64.9 °F49 %30.06 in10.0 miVariable5.8 mphClear
3:53 PM87.1 °F64.9 °F48 %30.04 in10.0 miSouth (190°)6.9 mphClear
4:53 PM87.1 °F64.9 °F48 %30.02 in10.0 miSSW (210°)5.8 mphClear
5:53 PM86.0 °F66.0 °F51 %30.01 in10.0 miSSW (200°)8.1 mphClear
6:53 PM84.0 °F68.0 °F58 %30.02 in10.0 miSW (220°)4.6 mphClear
7:53 PM81.0 °F68.0 °F65 %30.02 in9.0 miCalmClear
9:53 PM72.0 °F68.0 °F87 %30.03 in6.0 miSSE (150°)3.5 mphClear
10:53 PM71.1 °F66.9 °F87 %30.04 in4.0 miCalmClear
11:26 PM69.1 °F66.0 °F90 %30.05 in2.5 miCalmClear
11:39 PM69.1 °F66.0 °F90 %30.05 in5.0 miCalmClear
11:53 PM70.0 °F66.0 °F87 %30.04 in5.0 miCalmClear
Hourly data recorded from KPOF, located miles away from Campbell, Missouri







STORIES FROM OUR PARTNERS